Location: Newark
(45.8667°N, 9.7333°E)
Time: 02:55:22
(UTC+00:00)

A-11 Canister half - Pass Details

Date: 24 January 2020
Orbit: 1517 x 1683 km, 47.2° (Epoch: 19 February)

Event Time Altitude Azimuth Distance (km) Brightness Sun altitude
Rises 22:41:32 0° 222° (SW) 4,746 - -61.2°
Reaches altitude 10° 22:44:43 10° 218° (SW) 3,743 - -61.5°
Maximum altitude 22:53:44 53° 145° (SE) 1,833 - -62.1°
Drops below altitude 10° 23:02:35 10° 72° (ENE) 3,683 - -62.6°
Sets 23:05:42 0° 68° (ENE) 4,665 - -62.7°
